{"data":{"norad_id":63839,"intl_designator":"2025-093D","name":"STARLINK-34040","alt_names":[],"object_type":"PAYLOAD","status":"ACTIVE","operator":null,"country":"US","launch_date":"2025-05-07","launch_site_code":"AFETR","launch_vehicle":null,"mission":null,"orbit_class":"UNKNOWN","rcs_meters":null,"size_class":null,"mass_kg":null,"dimensions":null,"purposes":["comms"],"wikipedia_slug":null,"has_3d_model":false,"image_url":null,"decayed_at":null,"tle_current":{"epoch":"2026-05-24T23:59:09.233088Z","epoch_age_seconds":65347,"freshness":"FRESH","line1":"1 63839U 25093D   26144.99941242  .00015809  00000+0  58261-3 0  9992","line2":"2 63839  43.0042   6.8733 0001280 260.0579 100.0128 15.27589668 59644","mean_motion":15.27589668,"eccentricity":0.000128,"inclination_deg":43.0042,"raan_deg":6.8733,"arg_perigee_deg":260.0579,"mean_anomaly_deg":100.0128,"bstar":0.00058261,"rev_number":5964,"period_min":94.266152106496,"perigee_km":482.14191860751,"apogee_km":483.89837483707,"semimajor_km":6861.1571467223,"source":"CELESTRAK","updated_at":"2026-05-25T13:38:20.146440Z"}}}